"Pseudo-MPEC" for C0T4EZ1

Created 2019 Dec 4 2:07:05 UT using Find_Orb

Click here for an explanation of pseudo-MPECs

 
 Astrometry: 
     C0T4EZ1  C2019 12 02.34091 09 00 41.52 +65 18 03.6    ~C297 20.1 GVNEOCP703
     C0T4EZ1  C2019 12 02.34632 09 00 34.46 +65 19 24.6    ~C297 19.7 GVNEOCP703
     C0T4EZ1  C2019 12 02.35175 09 00 27.51 +65 20 42.8    ~C297 19.7 GVNEOCP703
     C0T4EZ1  C2019 12 02.35716 09 00 20.58 +65 22 00.6    ~C297 20.9 GVNEOCP703
     C0T4EZ1  C2019 12 02.42559 08 58 48.99 +65 38 27.5    ~C2Ab 20.7 GVNEOCPI52
     C0T4EZ1  C2019 12 02.42656 08 58 47.61 +65 38 42.0    ~C2Ab 20.8 GVNEOCPI52
     C0T4EZ1  C2019 12 02.42753 08 58 46.32 +65 38 55.7    ~C2Ab 21.0 GVNEOCPI52
     C0T4EZ1  C2019 12 02.42850 08 58 45.15 +65 39 09.2    ~C2Ab 21.6 GVNEOCPI52
     C0T4EZ1  C2019 12 02.48294 08 57 29.39 +65 51 58.6    ~C2Bq       VNEOCPI52
     C0T4EZ1  C2019 12 02.48391 08 57 28.22 +65 52 12.3    ~C2Bq 20.7 GVNEOCPI52
     C0T4EZ1  C2019 12 02.48488 08 57 26.80 +65 52 25.9    ~C2Bq 20.1 GVNEOCPI52
     C0T4EZ1  C2019 12 02.48585 08 57 25.48 +65 52 38.7    ~C2Bq 20.1 GVNEOCPI52
     C0T4EZ1 IC2019 12 03em%7oktehi3whQN9m(ZBq*FcTY4J?%6f^'[OqEho4?wM2aTvX8BvL01
     C0T4EZ1 KC2019 12 03F0quiaaMhwVDQNj?wX^AstrometryN_K.FY*YrMUr)eiXTPs[sp7L01
     C0T4EZ1  C2019 12 03.41454 08 34 12.85 +69 25 09.4    ~C3AM 19.8 GVNEOCPI52
     C0T4EZ1  C2019 12 03.41551 08 34 11.05 +69 25 22.8    ~C3AM 19.2 GVNEOCPI52
     C0T4EZ1  C2019 12 03.41648 08 34 09.19 +69 25 35.9    ~C3AM 19.6 GVNEOCPI52
     C0T4EZ1  C2019 12 03.41745 08 34 07.35 +69 25 49.0    ~C3AM 19.5 GVNEOCPI52
     C0T4EZ1 KC2019 12 03q?;AsE2+redacted;SYd^lclick6eG/nfRt)yUVJFMLfim\hereMZ99
     C0T4EZ1 KC2019 12 03'OX[bwsTg^Uv,AO2foro2eJB5poa68/sU6^Iexplanation[FFTTZ99
     C0T4EZ1 KC2019 12 03.99311908 15 20.25 +71 29 34.7    ~C40M 19.0 GVNEOCPJ95
     C0T4EZ1 KC2019 12 03.99629408 15 13.07 +71 30 16.5    ~C40M 19.0 GVNEOCPJ95
     C0T4EZ1 KC2019 12 03.99941608 15 06.00 +71 30 57.1    ~C40M 19.2 GVNEOCPJ95
     C0T4EZ1 KC2019 12 04.00248608 14 59.05 +71 31 37.2    ~C40M 19.2 GVNEOCPJ95

Station data:
(703) Catalina Sky Survey  (N32.417006 W110.732640)  US/Arizona.  Observers
   T. A. Pruyne, B. M. Africano, E. J. Christensen, G. A. Farneth, D. C.
   Fuls, A. R. Gibbs, A. D. Grauer, H. Gröller, J. A. Johnson, R. A.
   Kowalski, S. M. Larson, G. J. Leonard, D. Rankin, R. L. Seaman, F. C.
   Shelly. 0.68 m Schmidt + 10K CCD.
(I52) Steward Observatory, Mt. Lemmon Station  (N32.442547 W110.788920)
   US/Arizona.  Observers T. A. Pruyne, B. M. Africano, E. J. Christensen, G.
   A. Farneth, D. C. Fuls, A. R. Gibbs, A. D. Grauer, H. Gröller, J. A.
   Johnson, R. A. Kowalski, S. M. Larson, G. J. Leonard, D. Rankin, R. L.
   Seaman, F. C. Shelly. 1.0-m reflector + CCD.
(J95) Great Shefford  (N51.474969 W1.447003)  UK.  Observer P. Birtwhistle.
   0.40-m f/6.0 Schmidt-Cassegrain + CCD.
(L01) Višnjan Observatory, Tičan  (N45.290900 E13.749300)  Croatia.
   Observers K. Korlević, E. Pettarin. Measurer E. Pettarin. 1.0-m f/2.9
   reflector + CCD.
(Z99) Clixby Observatory, Cleethorpes  (N53.546062 W0.021260)  UK.

Orbital elements:  C0T4EZ1
   Perihelion 2019 Aug 23.498506 +/- 0.098 TT = 11:57:50 (JD 2458718.998506)
Epoch 2019 Dec  4.0 TT = JDT 2458821.5   Earth MOID: 0.0190   Ve: 0.0139
M 166.63656697 +/- 0.031            Me: 0.0000                AutoNEOCP
n   1.62569891 +/- 0.00129          Peri.  208.01713 +/- 0.023
a   0.71632367 +/- 0.00038          Node    50.58754 +/- 0.031
e   0.4296667 +/- 0.000904          Incl.    7.11865 +/- 0.024
P   0.61/221.44d           H 24.3   G  0.15   U  8.3  
q 0.40854322 +/- 0.000865    Q 1.02410412 +/- 0.000107
From 24 observations 2019 Dec. 2-4 (39.9 hr); mean residual 0".49
Residuals in arcseconds: 
191202 703  .39-  .95-    191202 I52  .89-  .15-    191203 I52  .39+  .21+    
191202 703  .81-  1.1+    191202 I52  .27+  .03-    191203 I52  .44+  .14+    
191202 703  .19-  .24+    191202 I52  .10-  .01-    191203 Z99  .83-  .16+    
191202 703  .58+  .69-    191202 I52  .15+  .79-    191203 Z99  .57-  .79-    
191202 I52  .17+  .13-    191203 L01  1.2+  .19+    191203 J95  .05+  .16-    
191202 I52  .17-  .53+    191203 L01  .56-  .25+    191203 J95  .01+  .15+    
191202 I52  .06+  .39+    191203 I52  .18+  .08+    191203 J95  .01-  .01-    
191202 I52  1.0+  .05+    191203 I52  .44+  .30+    191204 J95  .06+  .04+    

Ephemerides (geocentric):
Date (UTC) HH   RA              Dec         delta   r     elong  mag " sig PA
---- -- -- --  -------------   -----------  ------ ------ -----  --- ---- ---
2019 12 04 02  08 11 43.833   +71 48 14.46  .06219 1.0201 122.1 20.3 .194  94
2019 12 04 03  08 10 08.621   +71 56 52.73  .06219 1.0201 122.2 20.3 .208  98
2019 12 04 04  08 08 31.901   +72 05 27.99  .06218 1.0202 122.2 20.3 .223 101
2019 12 04 05  08 06 53.648   +72 14 00.16  .06218 1.0202 122.3 20.3 .240 104
2019 12 04 06  08 05 13.835   +72 22 29.16  .06218 1.0203 122.3 20.3 .257 106
2019 12 04 07  08 03 32.438   +72 30 54.90  .06218 1.0203 122.4 20.3 .276 108
2019 12 04 08  08 01 49.431   +72 39 17.28  .06218 1.0203 122.4 20.3 .295 110
2019 12 04 09  08 00 04.788   +72 47 36.21  .06218 1.0204 122.5 20.3 .316 111
2019 12 04 10  07 58 18.484   +72 55 51.60  .06219 1.0204 122.5 20.3 .338 113
2019 12 04 11  07 56 30.491   +73 04 03.35  .06219 1.0205 122.6 20.3 .360 114
2019 12 04 12  07 54 40.786   +73 12 11.36  .06219 1.0205 122.6 20.3 .384 115
2019 12 04 13  07 52 49.342   +73 20 15.53  .06220 1.0205 122.7 20.3 .408 116
2019 12 04 14  07 50 56.133   +73 28 15.75  .06220 1.0206 122.7 20.3 .433 117
2019 12 04 15  07 49 01.135   +73 36 11.94  .06221 1.0206 122.8 20.3 .459 117
2019 12 04 16  07 47 04.322   +73 44 03.97  .06221 1.0206 122.8 20.3 .486 118
2019 12 04 17  07 45 05.669   +73 51 51.74  .06222 1.0207 122.9 20.3 .513 118
2019 12 04 18  07 43 05.153   +73 59 35.14  .06223 1.0207 122.9 20.3 .542 119
2019 12 04 19  07 41 02.748   +74 07 14.07  .06224 1.0208 123.0 20.3 .571 119
2019 12 04 20  07 38 58.432   +74 14 48.40  .06225 1.0208 123.0 20.3 .601 119
2019 12 04 21  07 36 52.181   +74 22 18.02  .06226 1.0208 123.0 20.3 .631 119
2019 12 04 22  07 34 43.973   +74 29 42.82  .06227 1.0209 123.1 20.3 .662 119
2019 12 04 23  07 32 33.786   +74 37 02.68  .06228 1.0209 123.1 20.3 .694 119
2019 12 05 00  07 30 21.599   +74 44 17.47  .06229 1.0209 123.2 20.3 .727 119
2019 12 05 01  07 28 07.393   +74 51 27.07  .06230 1.0210 123.2 20.3 .760 119
2019 12 05 02  07 25 51.148   +74 58 31.37  .06232 1.0210 123.2 20.3 .794 119
2019 12 05 03  07 23 32.847   +75 05 30.23  .06233 1.0211 123.3 20.3 .829 119
2019 12 05 04  07 21 12.471   +75 12 23.54  .06234 1.0211 123.3 20.3 .864 119
2019 12 05 05  07 18 50.007   +75 19 11.15  .06236 1.0211 123.4 20.3 .900 119
2019 12 05 06  07 16 25.439   +75 25 52.95  .06237 1.0212 123.4 20.3 .937 118
2019 12 05 07  07 13 58.755   +75 32 28.79  .06239 1.0212 123.4 20.3 .975 118
2019 12 05 08  07 11 29.944   +75 38 58.56  .06241 1.0212 123.5 20.3 1.01 118
2019 12 05 09  07 08 58.997   +75 45 22.11  .06243 1.0213 123.5 20.3 1.05 117
2019 12 05 10  07 06 25.905   +75 51 39.31  .06244 1.0213 123.5 20.3 1.09 117
2019 12 05 11  07 03 50.663   +75 57 50.03  .06246 1.0213 123.6 20.3 1.13 117
2019 12 05 12  07 01 13.268   +76 03 54.13  .06248 1.0214 123.6 20.3 1.17 116
2019 12 05 13  06 58 33.719   +76 09 51.48  .06250 1.0214 123.6 20.3 1.21 116
2019 12 05 14  06 55 52.015   +76 15 41.94  .06253 1.0214 123.7 20.3 1.25 115
2019 12 05 15  06 53 08.162   +76 21 25.37  .06255 1.0215 123.7 20.3 1.30 115
2019 12 05 16  06 50 22.164   +76 27 01.63  .06257 1.0215 123.7 20.3 1.34 114
2019 12 05 17  06 47 34.030   +76 32 30.60  .06259 1.0215 123.8 20.3 1.38 114
2019 12 05 18  06 44 43.773   +76 37 52.12  .06262 1.0216 123.8 20.3 1.43 113
2019 12 05 19  06 41 51.407   +76 43 06.08  .06264 1.0216 123.8 20.3 1.47 113
2019 12 05 20  06 38 56.948   +76 48 12.33  .06267 1.0216 123.8 20.3 1.52 112
2019 12 05 21  06 36 00.419   +76 53 10.73  .06269 1.0217 123.9 20.3 1.56 112
2019 12 05 22  06 33 01.842   +76 58 01.16  .06272 1.0217 123.9 20.3 1.61 111
2019 12 05 23  06 30 01.246   +77 02 43.49  .06275 1.0217 123.9 20.3 1.66 111
2019 12 06 00  06 26 58.661   +77 07 17.59  .06277 1.0218 123.9 20.3 1.71 110
2019 12 06 01  06 23 54.121   +77 11 43.32  .06280 1.0218 124.0 20.3 1.75 109